Regional Weather Roundup
Issued by NWS

Home | Current Version | Previous Version | Graphics & Text | Print | Product List | Glossary Off
Versions: 1 2 3 4 5 6 7 8 9 10 11 12 13 14 15 16 17 18 19 20 21 22 23 24 25 26 27 28 29 30 31 32 33 34 35 36 37 38 39 40 41 42 43 44 45 46 47 48 49 50

000
ASUS43 KDTX 262310
RWRMI
MICHIGAN HOURLY REGIONAL WEATHER ROUNDUP
NATIONAL WEATHER SERVICE DETROIT/PONTIAC MI
700 PM EDT MON SEP 26 2016

NOTE: "FAIR" INDICATES FEW OR NO CLOUDS BELOW 12,000 FEET WITH NO
SIGNIFICANT WEATHER AND/OR OBSTRUCTION TO VISIBILITY.

MIZ047>049-052>055-059>063-066>070-074>076-081>083-270000-
SOUTHEAST LOWER MICHIGAN

CITY           SKY/WX    TMP DP  RH WIND       PRES   REMARKS
ADRIAN         CLEAR     65  39  38 W9G18     29.92S
ALMA           PTCLDY    62  44  50 W15G22    29.86S
ANN ARBOR      CLEAR     64  40  41 SW14G22   29.90R
BAD AXE        MOCLDY    61  40  45 W12       29.84R
CARO           PTCLDY    61  43  50 SW8G17    29.84R
DETROIT CITY   CLEAR     66  39  37 W13G24    29.89R
DETROIT        PTCLDY    66  40  38 W15G21    29.90R
FLINT          CLEAR     62  41  46 W17G23    29.88R
GROSSE ILE     CLEAR     65  42  41 W9        29.89R
HILLSDALE      CLEAR     63  37  39 W6        29.92R
HOWELL         CLEAR     62  41  46 W10       29.89R

CITY           SKY/WX    TMP DP  RH WIND       PRES   REMARKS
JACKSON        PTCLDY    62  40  44 W12       29.91R
LAMBERTVILLE   CLEAR     67  39  35 W6G18     29.92R
LANSING        MOCLDY    62  40  44 SW14      29.89S
LAPEER         FAIR      63  39  40 W14G21    29.87R
MASON          PTCLDY    62  43  49 W6        29.90R
MONROE         CLEAR     65  40  39 W8G21     29.90R
MT. CLEMENS    PTCLDY    65  41  40 W13G24    29.86R
PONTIAC        PTCLDY    63  41  44 W15G23    29.88R
PORT HOPE        N/A     61  42  49 W14G26    29.81R
PORT HURON     PTCLDY    63  45  51 SW6       29.87R
TRI CITIES     MOCLDY    62  45  53 W15G23    29.84R
MIDLAND        FAIR      59  45  58 SW8G16    29.83R
TROY           CLEAR     67  36  31 W13G24    29.90R
SAGINAW HB     PTCLDY    61  43  51 SW12G17   29.84R
$$
MIZ043>046-050>051-056>058-064>065-071>073-077>080-270000-
SOUTHWEST LOWER MICHIGAN

CITY           SKY/WX    TMP DP  RH WIND       PRES   REMARKS
BATTLE CREEK   CLEAR     62  42  47 W9        29.92R
BENTON HARBOR  PTCLDY    66  39  37 W16       29.91S
BIG RAPIDS     MOCLDY    57  40  52 W9G24     29.83S
COLDWATER      CLEAR     64  34  33 W10       29.92S
FREMONT        CLOUDY    60  37  42 W6        29.85S
HOLLAND        CLOUDY    64  41  42 W17G24    29.89S
GRAND RAPIDS   MOCLDY    62  38  40 W16G24    29.88S
IONIA          MOCLDY    61  39  44 W14       29.87S
KALAMAZOO      PTCLDY    64  39  39 W7        29.92S
LUDINGTON      MOCLDY    62  40  44 W18G26    29.81S
MARSHALL       PTCLDY    61  41  46 W9        29.91R
MOUNT PLEASANT PTCLDY    61  42  49 W9G21     29.83S
MUSKEGON       CLOUDY    64  40  41 W15G23    29.86F
SOUTH HAVEN    PTCLDY    66  41  39 W14G20    29.91S
$$
MIZ016>042-270000-
NORTHERN LOWER MICHIGAN

CITY           SKY/WX    TMP DP  RH WIND       PRES   REMARKS
ALPENA         CLOUDY    57  43  59 SW10G20   29.76R
BEAVER ISLAND  CLOUDY    57  47  68 W28G35    29.69R
BELLAIRE       CLOUDY    56  47  73 SW8       29.75F
CADILLAC       CLEAR     57  40  53 SW10G17   29.79S
CHARLEVOIX     CLOUDY    58  45  62 W22G36    29.74R
FRANKFORT      LGT RAIN  61  42  50 W18G28    29.76F
GAYLORD        LGT RAIN  51  46  83 SW14      29.77R
GRAYLING       CLOUDY    56  46  67 NW13      29.79R
HARBOR SPRINGS RAIN      53  51  92 SW12G20   29.70F
HOUGHTON LAKE  PTCLDY    59  40  49 W20G26    29.79S
MANISTEE       LGT RAIN  56  44  64 W12G33    29.79R
OSCODA         MOCLDY    58  45  61 SW13G18   29.78S
PELLSTON       LGT RAIN  53  49  86 SW3       29.71R
ROGERS CITY    CLOUDY    54  49  83 SW10G22   29.74R
TRAVERSE CITY  LGT RAIN  55  46  71 SW10G22   29.76R
$$
MIZ007>008-015-270000-
EASTERN UPPER MICHIGAN

CITY           SKY/WX    TMP DP  RH WIND       PRES   REMARKS
KINROSS        MOCLDY    54  50  86 CALM      29.65
MACKINAC ISLAN CLOUDY    57  48  71 W20G31    29.67S
NEWBERRY       CLOUDY    53  49  84 W17       29.64S
S. S. MARIE    CLOUDY    57  49  74 W9        29.64R
MUNISING         N/A     55  46  71 SW9G17    29.63S
$$
MIZ004>006-011>014-085-270000-
CENTRAL UPPER MICHIGAN

CITY           SKY/WX    TMP DP  RH WIND       PRES   REMARKS
MANISTIQUE     CLOUDY    55  44  66 W8        29.68S
ESCANABA       CLOUDY    55  45  68 SW15G22   29.69S
MENOMINEE      CLOUDY    57  43  59 W9G20     29.76R
SAWYER-GWINN   CLOUDY    52  45  76 W16G28    29.65S
$$
MIZ001>003-009>011-084-270000-
WESTERN UPPER MICHIGAN

CITY           SKY/WX    TMP DP  RH WIND       PRES   REMARKS
IRON MOUNTAIN  LGT RAIN  51  43  74 W15G24    29.70R
HOUGHTON       LGT RAIN  51  47  86 W31G43    29.55S
COPPER HARBOR    N/A     54  48  80 W15G26    29.51
IRONWOOD       LGT RAIN  49  46  90 W15       29.71S
$$

ABBREVIATIONS USED IN REMARKS
   TC - TEMPERATURE IN CELSIUS
  WCI - WIND CHILL INDEX
   HX - HEAT INDEX
  VSB - VISIBILITY





USA.gov is the U.S. government's official web portal to all federal, state and local government web resources and services.